Location: Red Bud (historical)
(37.7759°N, 88.4053°W)
Time: 00:16:45
(UTC+00:00)

CZ-4 R/B - Pass Details

Date: 29 October 2020
Orbit: 532 x 598 km, 97.7° (Epoch: 28 November)

Event Time Altitude Azimuth Distance (km) Brightness Sun altitude
Rises 23:45:47 0° 139° (SE) 2,700 4.5 -10.1°
Reaches altitude 10° 23:48:11 10° 125° (SE) 1,803 3.5 -10.6°
Maximum altitude 23:51:21 24° 70° (ENE) 1,138 2.3 -11.2°
Drops below altitude 10° 23:54:29 10° 16° (NNE) 1,795 3.7 -11.8°
Sets 23:56:52 0° 2° (N) 2,686 4.7 -12.3°
